Date String (YYYY-MM-DD hh:mm:ss) UTC,Instrument flags,Ambient pressure (hPa),Sample flow (lpm),Bypass flow (lpm),Sample temperature (°C),Ambient temperature (°C),ASC tube jacket temperature (°C),LED temperature (°C),Box temperature (°C),Sample RH (%),Span deviation,Mass concentration (μg/m³),Mass concentration (μg/m³),Mass concentration (μg/m³)
DateTimeUTC,F1_M11,P_M11,Q1_M11,Q2_M11,T1_M11,T2_M11,T3_M11,T4_M11,T5_M11,U1_M11,ZSPAN_M11,X0_M11,X2_M11,X1_M11
2023-03-03 14:00:00,,0814.8,5.00,0.00,22.4,20.6,00.0,31.2,24.0,13.6,-001.3,0019.54,0013.19,0012.56
2023-03-03 14:01:00,,0814.8,5.00,0.00,22.4,20.5,00.0,31.2,24.0,13.6,-001.3,0019.89,0012.97,0012.33
2023-03-03 14:02:00,,0814.9,5.00,0.00,22.4,20.5,00.0,31.2,23.9,13.7,-001.1,0019.78,0012.81,0012.12
2023-03-03 14:03:00,,0814.8,5.00,0.00,22.3,20.4,00.0,31.2,23.9,13.6,-000.9,0019.79,0012.58,0011.88
2023-03-03 14:04:00,,0814.9,5.00,0.00,22.3,20.3,00.0,31.2,23.8,13.6,-000.9,0019.63,0012.37,0011.66
2023-03-03 14:05:00,,0814.9,5.00,0.00,22.2,20.3,00.0,31.1,23.8,13.6,-000.9,0019.75,0012.19,0011.46
2023-03-03 14:06:00,,0814.9,5.01,0.00,22.2,20.2,00.0,31.1,23.8,13.6,-000.8,0020.61,0012.08,0011.33
2023-03-03 14:07:00,,0814.8,5.01,0.00,22.2,20.2,00.0,31.1,23.8,13.6,-001.0,0020.55,0012.02,0011.26
2023-03-03 14:08:00,,0814.8,5.01,0.00,22.2,20.2,00.0,31.1,23.8,13.6,-001.2,0020.26,0011.94,0011.16
2023-03-03 14:09:00,,0814.8,4.98,0.00,22.2,21.0,00.0,31.1,23.9,13.6,-001.3,0020.58,0011.94,0011.15
2023-03-03 14:10:00,,0814.8,5.01,0.00,22.3,22.3,00.0,31.0,24.2,13.5,-001.5,0021.01,0011.99,0011.17
2023-03-03 14:11:00,,0814.8,5.00,0.00,22.4,23.1,00.0,31.1,24.4,13.5,-001.4,0021.48,0011.97,0011.11
2023-03-03 14:12:00,,0814.8,5.02,0.00,22.5,22.7,00.0,31.1,24.4,13.4,-001.2,0021.74,0011.97,0011.11
2023-03-03 14:13:00,,0814.7,5.02,0.00,22.5,22.2,00.0,31.1,24.2,13.3,-001.4,0022.06,0012.00,0011.13
2023-03-03 14:14:00,,0814.8,5.00,0.00,22.5,21.7,00.0,31.1,24.1,13.3,-001.6,0022.28,0012.10,0011.14
2023-03-03 14:15:00,,0814.7,5.00,0.00,22.4,21.4,00.0,31.1,24.1,13.3,-001.7,0023.35,0012.10,0011.09
2023-03-03 14:16:00,,0814.8,5.01,0.00,22.4,21.1,00.0,31.1,24.0,13.2,-001.7,0023.87,0012.06,0011.05
2023-03-03 14:17:00,,0814.8,5.03,0.00,22.4,20.9,00.0,31.1,23.9,13.1,-001.8,0022.93,0011.93,0010.89
2023-03-03 14:18:00,,0814.8,4.97,0.00,22.3,20.7,00.0,31.1,24.0,13.1,-001.9,0023.31,0011.78,0010.67
2023-03-03 14:19:00,,0814.8,5.00,0.00,22.3,20.6,00.0,31.1,23.9,13.1,-002.0,0023.29,0011.69,0010.52
2023-03-03 14:20:00,,0814.9,5.00,0.00,22.3,20.5,00.0,31.1,23.9,13.1,-001.9,0022.63,0011.48,0010.33
2023-03-03 14:21:00,,0814.9,5.02,0.00,22.3,20.4,00.0,31.1,23.9,13.2,-002.0,0022.68,0011.24,0010.10
2023-03-03 14:22:00,,0814.9,5.00,0.00,22.2,20.4,00.0,31.1,23.9,13.2,-002.0,0023.31,0011.11,0009.97
2023-03-03 14:23:00,,0814.9,5.01,0.00,22.2,20.3,00.0,31.1,23.8,13.2,-002.2,0023.49,0010.96,0009.81
2023-03-03 14:24:00,,0815.0,5.00,0.00,22.2,20.3,00.0,31.0,23.9,13.2,-002.3,0023.49,0010.77,0009.64
2023-03-03 14:25:00,,0814.9,5.00,0.00,22.2,20.2,00.0,31.0,23.9,13.3,-002.2,0024.40,0010.52,0009.48
2023-03-03 14:26:00,,0814.9,5.01,0.00,22.2,20.2,00.0,31.0,23.8,13.3,-002.0,0024.05,0010.34,0009.38
2023-03-03 14:27:00,,0814.9,5.00,0.00,22.1,20.2,00.0,31.0,23.8,13.3,-002.1,0023.52,0010.23,0009.29
2023-03-03 14:28:00,,0815.1,5.00,0.00,22.1,20.2,00.0,31.0,23.7,13.4,-001.9,0023.48,0010.15,0009.21
2023-03-03 14:29:00,,0815.1,5.00,0.00,22.1,20.3,00.0,31.0,23.7,13.5,-002.0,0022.66,0010.03,0009.15
2023-03-03 14:30:00,,0815.3,5.02,0.00,22.2,21.3,00.0,30.9,23.9,13.5,-002.0,0022.19,0009.88,0009.09
2023-03-03 14:31:00,,0814.9,5.02,0.00,22.3,22.6,00.0,30.9,24.2,13.5,-002.0,0022.42,0009.82,0009.04
2023-03-03 14:32:00,,0815.0,4.97,0.00,22.4,23.1,00.0,31.0,24.4,13.4,-002.0,0021.99,0009.75,0009.01
2023-03-03 14:33:00,,0815.0,5.02,0.00,22.4,22.6,00.0,31.0,24.3,13.4,-002.0,0020.92,0009.70,0009.00
2023-03-03 14:34:00,,0815.0,5.00,0.00,22.4,22.2,00.0,31.1,24.3,13.4,-002.2,0019.84,0009.67,0009.00
2023-03-03 14:35:00,,0815.0,5.00,0.00,22.4,21.8,00.0,31.1,24.2,13.5,-002.1,0020.36,0009.68,0009.00
2023-03-03 14:36:00,,0815.0,5.01,0.00,22.4,21.5,00.0,31.1,24.2,13.4,-002.2,0019.03,0009.70,0008.98
2023-03-03 14:37:00,,0815.0,4.98,0.00,22.4,21.3,00.0,31.1,24.1,13.4,-002.3,0018.16,0009.67,0008.94
2023-03-03 14:38:00,,0815.0,5.00,0.00,22.4,21.1,00.0,31.1,24.1,13.3,-002.1,0017.52,0009.61,0008.89
2023-03-03 14:39:00,,0815.0,4.99,0.00,22.4,21.0,00.0,31.1,24.1,13.1,-002.1,0017.16,0009.52,0008.84
2023-03-03 14:40:00,,0815.0,5.01,0.00,22.4,20.9,00.0,31.1,24.1,13.0,-002.1,0017.01,0009.44,0008.77
2023-03-03 14:41:00,,0815.0,4.96,0.00,22.4,20.8,00.0,31.1,24.1,13.2,-002.2,0017.75,0009.46,0008.75
2023-03-03 14:42:00,,0815.0,5.00,0.00,22.4,20.7,00.0,31.1,24.0,12.9,-002.4,0018.18,0009.41,0008.69
2023-03-03 14:43:00,,0815.1,5.01,0.00,22.3,20.6,00.0,31.1,24.0,12.8,-002.3,0017.91,0009.36,0008.61
2023-03-03 14:44:00,,0815.0,4.99,0.00,22.3,20.6,00.0,31.1,24.0,12.2,-002.3,0017.57,0009.15,0008.42
2023-03-03 14:45:00,,0815.0,5.02,0.00,22.3,20.5,00.0,31.1,24.0,11.4,-002.2,0016.88,0008.76,0008.03
2023-03-03 14:46:00,,0815.1,4.99,0.00,22.3,20.5,00.0,31.1,23.9,11.6,-002.1,0015.43,0008.35,0007.70
2023-03-03 14:47:00,,0815.2,5.00,0.00,22.3,20.5,00.0,31.1,23.9,12.9,-002.0,0014.98,0008.17,0007.55
2023-03-03 14:48:00,,0815.2,5.00,0.00,22.2,20.5,00.0,31.0,23.9,14.2,-002.0,0016.03,0008.25,0007.55
2023-03-03 14:49:00,,0815.6,5.00,0.00,22.2,20.5,00.0,31.0,23.9,14.5,-002.0,0016.20,0008.28,0007.56
2023-03-03 14:50:00,,0815.3,5.00,0.00,22.2,20.6,00.0,31.0,23.9,14.7,-002.0,0016.33,0008.30,0007.56
2023-03-03 14:51:00,,0815.2,5.02,0.00,22.2,20.6,00.0,31.0,23.9,14.6,-001.8,0016.61,0008.35,0007.59
2023-03-03 14:52:00,,0815.2,5.00,0.00,22.2,20.6,00.0,31.0,23.9,14.4,-001.8,0015.84,0008.32,0007.57
2023-03-03 14:53:00,,0815.2,5.01,0.00,22.2,20.6,00.0,31.0,23.9,14.1,-001.6,0014.89,0008.29,0007.53
2023-03-03 14:54:00,,0815.3,5.01,0.00,22.2,20.9,00.0,31.0,23.9,14.1,-001.5,0015.49,0008.27,0007.50
2023-03-03 14:55:00,,0815.3,4.98,0.00,22.3,22.1,00.0,31.0,24.2,13.4,-001.5,0015.75,0008.30,0007.51
2023-03-03 14:56:00,,0815.3,4.97,0.00,22.4,23.2,00.0,31.0,24.4,13.1,-001.3,0016.38,0008.48,0007.70
2023-03-03 14:57:00,,0815.3,5.00,0.00,22.5,23.1,00.0,31.1,24.5,13.1,-001.4,0016.73,0008.67,0007.86
2023-03-03 14:58:00,,0815.3,5.00,0.00,22.5,22.6,00.0,31.1,24.4,13.0,-001.6,0017.49,0008.70,0007.87
2023-03-03 14:59:00,,0815.3,4.99,0.00,22.5,22.2,00.0,31.1,24.4,12.5,-001.5,0016.27,0008.47,0007.73
